Regional Weather Roundup
Issued by NWS New Orleans/Baton Rouge, LA

Home | Current Version | Previous Version | Text Only | Print | Product List | Glossary On
Versions: 1 2 3 4 5 6 7 8 9 10 11 12 13 14 15 16 17 18 19 20 21 22 23 24 25 26 27 28 29 30 31 32 33 34 35 36 37 38 39 40 41 42 43 44 45 46 47 48 49 50
227
ASUS44 KLIX 201410
RWRLIX
NEW ORLEANS REGIONAL WEATHER ROUNDUP
NATIONAL WEATHER SERVICE NEW ORLEANS LA
900 AM CDT WED AUG 20 2014

NOTE: "FAIR" INDICATES FEW OR NO CLOUDS BELOW 12,000 FEET WITH NO
      SIGNIFICANT WEATHER AND/OR OBSTRUCTIONS TO VISIBILITY.
      SKY/WX - SKY CONDITION AND SIGNIFICANT WEATHER.
      TMP - AIR TEMPERATURE.     DP    - DEWPOINT TEMPERATURE.
      RH  - RELATIVE HUMIDITY.   PRES  - PRESSURE.
      HI  - HEAT INDEX.          WCI   - WIND CHILL INDEX.

*  THESE STATIONS ARE NOT NWS OR FAA STATIONS AND ARE NOT UNDER
   NWS QUALITY CONTROL.

LAZ038-040-048-061>063-065>067-069-201500-
SOUTHEAST LOUISIANA

CITY           SKY/WX    TMP DP  RH WIND       PRES   REMARKS
N.O. AUDUBON     N/A     87  76  71 MISG        N/A  HX  97
N.O. INTL ARPT MOSUNNY   86  76  71 CALM      30.06R HX  96
N.O. LAKEFRONT MOSUNNY   85  76  74 CALM      30.07R
N.O. DOWNTOWN*   N/A     88  73  62 CALM      30.07R HX  96
SLIDELL        MOSUNNY   84  76  76 CALM      30.07R
BATON ROUGE    SUNNY     82  74  76 NE5       30.06R
BOOTHVILLE     SUNNY     87  75  67 S7        30.08R HX  96
BELLE CHASSE   PTSUNNY   86  76  71 CALM      30.06R HX  96
BOGALUSA*        N/A     83  73  73 CALM      30.09R
GALLIANO*      NOT AVBL
NEW ROADS*       N/A     79  75  87 NE3       30.06R
GONZALES*        N/A     82  79  90 CALM      30.05S
HAMMOND*       SUNNY     84  72  65 CALM      30.08S
HOUMA*         MOSUNNY   86  75  70 CALM      30.06R HX  95
PORT FOURCHON* SUNNY     88  77  70 SW8       30.08R HX 100

$$

MSZ070-080>082-201500-
SOUTHERN MISSISSIPPI

CITY           SKY/WX    TMP DP  RH WIND       PRES   REMARKS
MCCOMB         MOSUNNY   83  73  72 VRB3      30.08R
GULFPORT       MOSUNNY   85  76  74 VRB3      30.07R
BILOXI         SUNNY     86  77  73 VRB1      30.08R HX  96
PASCAGOULA     MOSUNNY   85  76  74 VRB3      30.08R
STENNIS ARPT*  SUNNY    N/A N/A N/A CALM      30.08R

$$

COASTAL OBSERVATIONS
LAKE AND NEARSHORE STATIONS

STATION/POSITION TIME  TEMP    WIND        PRES    WAVE
                       AIR SEA DIR/SP/G            HT/PER
                 (UTC) (F)     (DEG/KT/KT) (MB)    (FT/S)
PASCAGOULA       1400   86     270/  6/  8 1018.0
WAVELAND YACHT   1400   82      20/  4/  4 1017.8
GRAND ISLE       1400   87 87  220/  6/  9 1018.6
SOUTHWEST PASS   1400   86 88  200/  3/  6 1018.4
NEW CANAL        1400   84 83   10/  2/  2 1018.5
SHELL BEACH      1400   85 82   50/  2/  3 1018.2

OFFSHORE STATIONS

STATION/POSITION TIME  TEMP    WIND        PRES    WAVE
                       AIR SEA DIR/SP/G            HT/PER
                 (UTC) (F)     (DEG/KT/KT) (MB)    (FT/S)
64 S DAUPHIN ISL 1307   86 87  260/  6/  6 1018.7

$$




USA.gov is the U.S. government's official web portal to all federal, state and local government web resources and services.